[[{"header":{"parameterUnit":"m.s-1","parameterCategory":1,"la1":30.2991,"la2":30.254,"lo1":-89.0895,"lo2":-89.0444,"dy":0.0017,"dx":0.0017,"nx":28,"ny":28,"refTime":"2024-07-06T21:00:00:Z","depth":0,"parameterNumber":2,"parameterNumberName":"U-component_of_WINDS"},"data":[0,0,0,0,0,0,0,0,0,0,0,0,0,0,0,0,0,0,0,0,0,0,0,0,0,0,0,0,0,0,0,0,0,0,0,0,0,0,0,0,0,0,0,0,0,0,0,0,0,0,0,0,0,0,0,0,0,0,-3.3896,-3.3895,0,-3.3764,-3.3762,-3.3761,-3.3614,-3.3612,-3.361,-3.3608,-3.3468,-3.3467,-3.3465,0,0,0,0,0,0,0,0,0,0,0,0,0,-3.4021,-3.4019,-3.3896,-3.3895,-3.3893,-3.3764,-3.3762,-3.376,-3.3614,-3.3612,-3.3609,-3.3607,-3.3469,-3.3467,-3.3465,0,0,0,0,0,0,0,0,0,0,0,0,0,-3.3935,-3.4019,-3.3897,-3.3805,-3.3795,-3.3764,-3.3762,-3.376,-3.3615,-3.3612,-3.3609,-3.3606,-3.347,-3.3467,-3.3465,-3.3513,0,0,-3.3457,-3.3456,0,0,0,0,0,0,0,0,-3.394,-3.3931,-3.382,-3.3811,-3.38,-3.3702,-3.3755,-3.3677,-3.3616,-3.3683,-3.3608,-3.3604,-3.3549,-3.3539,-3.3521,-3.3506,-3.35,-3.3456,-3.3455,-3.3454,-3.3453,0,0,0,0,0,0,0,-3.3946,-3.3936,-3.3844,-3.3818,-3.3806,-3.3769,-3.3754,-3.3739,-3.3635,-3.3677,-3.3666,-3.3653,-3.3543,-3.3524,-3.3517,-3.3498,-3.3457,-3.3454,-3.3453,-3.3452,-3.3516,-3.3519,0,0,0,0,0,0,-3.3967,-3.3942,-3.3848,-3.384,-3.3864,-3.377,-3.3752,-3.3737,-3.3635,-3.3617,-3.3656,-3.3646,-3.353,-3.352,-3.3512,-3.356,-3.3454,-3.3451,-3.345,-3.3512,-3.3516,-3.352,0,0,0,0,0,0,-3.397,-3.396,-3.3853,-3.3888,-3.3871,-3.3771,-3.3755,-3.3736,-3.3717,-3.3619,-3.3599,-3.3656,-3.3527,-3.3515,-3.3514,-3.3553,-3.345,-3.3448,-3.3508,-3.3513,-3.3518,-3.3658,0,0,0,0,0,0,-3.3974,-3.3962,-3.3979,-3.3889,-3.387,-3.3858,-3.3757,-3.3736,-3.3714,-3.37,-3.3614,-3.3597,-3.3524,-3.3518,-3.3511,-3.3548,-3.3446,-3.3504,-3.3511,-3.3516,-3.3649,-3.3667,-3.3682,0,0,0,0,0,-3.3979,-3.4023,-3.3981,-3.397,-3.389,-3.3861,-3.385,-3.3766,-3.3718,-3.3734,-3.3671,-3.3599,-3.3551,-3.3519,-3.351,-3.3546,-3.3501,-3.3509,-3.3516,-3.3642,-3.3664,-3.3682,0,0,0,0,0,0,-3.4118,-3.4009,-3.3961,-3.3977,-3.393,-3.3836,-3.3854,-3.3792,-3.3756,-3.3745,-3.3642,-3.3623,-3.3634,-3.359,-3.3557,-3.3588,-3.3516,-3.3522,-3.3615,-3.3635,-3.3651,-3.366,-3.3444,0,0,0,0,0,-3.4151,-3.4137,-3.4043,-3.4066,-3.4045,-3.3955,-3.3939,-3.3879,-3.3825,-3.3803,-3.374,-3.369,-3.3663,-3.3647,-3.3617,-3.3644,-3.3622,-3.3665,-3.3681,-3.3695,-3.37,-3.3711,-3.3728,-3.3544,-3.3544,-3.3544,0,0,-3.4217,-3.4157,-3.4154,-3.4093,-3.4049,-3.4036,-3.3938,-3.3929,-3.3918,-3.3801,-3.3795,-3.3749,-3.3685,-3.3699,-3.3701,-3.3662,-3.3747,-3.3705,-3.3717,-3.3713,-3.372,-3.3738,-3.3753,-3.3549,-3.3548,-3.3547,0,0,-3.4332,-3.4286,-3.43,-3.4259,-3.4194,-3.4134,-3.4138,-3.4055,-3.4019,-3.4013,-3.3925,-3.3912,-3.3868,-3.3826,-3.3799,-3.3903,-3.3835,-3.3897,-3.3981,-3.3993,-3.4007,-3.4019,-3.4054,-3.4068,-3.3903,-3.3903,-3.3903,0,-3.4422,-3.4401,-3.4315,-3.4311,-3.4287,-3.4184,-3.4197,-3.4161,-3.409,-3.4075,-3.4034,-3.3977,-3.3928,-3.3929,-3.3955,-3.3938,-3.3938,-3.3904,-3.4012,-3.4024,-3.4034,-3.4066,-3.408,-3.3911,-3.391,-3.3909,-3.3908,0,-3.4514,-3.4501,-3.4521,-3.4456,-3.4434,-3.444,-3.4354,-3.4342,-3.4286,-3.423,-3.4226,-3.4163,-3.4119,-3.4116,-3.406,-3.411,-3.4088,-3.4032,-3.3956,-3.4061,-3.4089,-3.4101,-3.3922,-3.3919,-3.3917,-3.3915,0,0,-3.4708,-3.4599,-3.4607,-3.4577,-3.45,-3.4487,-3.4489,-3.4447,-3.4439,-3.4395,-3.4392,-3.4359,-3.4307,-3.4277,-3.4216,-3.4227,-3.4312,-3.4168,-3.4165,-3.4195,-3.4362,-3.4402,-3.4418,-3.4269,-3.4271,-3.4272,-3.4366,0,-3.4806,-3.4802,-3.4726,-3.4743,-3.4729,-3.4634,-3.4635,-3.4588,-3.4537,-3.4518,-3.4461,-3.4439,-3.4373,-3.4354,-3.4361,-3.43,-3.4343,-3.4293,-3.4263,-3.4263,-3.4278,-3.4433,-3.4476,-3.4567,-3.4377,-3.4379,-3.438,0,-3.4919,-3.4884,-3.49,-3.4824,-3.4816,-3.4818,-3.4774,-3.4758,-3.4703,-3.4665,-3.4634,-3.4566,-3.4562,-3.4495,-3.4486,-3.4454,-3.4438,-3.4407,-3.4408,-3.4399,-3.4325,-3.4425,-3.4594,-3.4607,-3.4397,-3.4396,-3.4395,0,-3.5056,-3.5013,-3.5016,-3.4994,-3.4906,-3.491,-3.4874,-3.4816,-3.4796,-3.4759,-3.4745,-3.4707,-3.4686,-3.4658,-3.4582,-3.454,-3.4582,-3.4508,-3.4548,-3.455,-3.4557,-3.4557,-3.4723,-3.4554,-3.4554,-3.4554,-3.4553,0,-3.5172,-3.5185,-3.5077,-3.5079,-3.5091,-3.5005,-3.5019,-3.4973,-3.4923,-3.4914,-3.483,-3.4823,-3.4725,-3.4707,-3.4648,-3.4649,-3.4641,-3.4609,-3.4592,-3.4614,-3.4618,-3.4599,-3.4589,-3.4557,-3.4556,-3.4556,-3.4555,0,-3.5324,-3.5253,-3.525,-3.5169,-3.5149,-3.5162,-3.5091,-3.5089,-3.5036,-3.5026,-3.5018,-3.4933,-3.4908,-3.4831,-3.4785,-3.4746,-3.4764,-3.4734,-3.4782,-3.4771,-3.4814,-3.481,-3.4971,-3.4987,-3.4811,-3.4813,-3.4815,0,-3.5401,-3.5409,-3.533,-3.5319,-3.5286,-3.5269,-3.525,-3.5167,-3.5149,-3.5089,-3.5095,-3.5064,-3.5033,-3.4998,-3.4931,-3.4897,-3.4864,-3.4923,-3.4858,-3.488,-3.4861,-3.4861,-3.486,-3.4936,-3.4938,-3.494,-3.4941,0,-3.5544,-3.551,-3.5485,-3.5449,-3.5428,-3.5396,-3.5358,-3.5353,-3.526,-3.5245,-3.522,-3.5197,-3.5153,-3.5122,-3.5077,-3.5038,-3.4974,-3.4964,-3.497,-3.4991,-3.5017,-3.5001,-3.4817,-3.4959,-3.4957,-3.4956,-3.4955,-3.4954,-3.5659,-3.5662,-3.5607,-3.5583,-3.5546,-3.5514,-3.5508,-3.5455,-3.5433,-3.539,-3.5344,-3.5323,-3.527,-3.5203,-3.517,-3.5152,-3.5118,-3.5128,-3.513,-3.5133,-3.5143,-3.5024,-3.5144,-3.5144,-3.5143,-3.5143,-3.5142,0,-3.5795,-3.5756,-3.5736,-3.5686,-3.5668,-3.5613,-3.5569,-3.5556,-3.554,-3.5496,-3.547,-3.544,-3.5411,-3.5345,-3.5309,-3.5308,-3.5277,-3.5301,-3.5298,-3.529,-3.5177,-3.5173,-3.5326,-3.5326,-3.5326,-3.5326,-3.5326,-3.5326,-3.5864,-3.5865,-3.5825,-3.5808,-3.5768,-3.5749,-3.5728,-3.5698,-3.5662,-3.5634,-3.561,-3.5568,-3.5515,-3.5475,-3.5446,-3.5427,-3.5416,-3.5449,-3.542,-3.5315,-3.5298,-3.5281,-3.5277,-3.5448,-3.5449,-3.5534,-3.5535,-3.5535]},{"header":{"parameterUnit":"m.s-1","parameterCategory":1,"la1":30.2991,"la2":30.254,"lo1":-89.0895,"lo2":-89.0444,"dy":0.0017,"dx":0.0017,"nx":28,"ny":28,"refTime":"2024-07-06T21:00:00:Z","depth":0,"parameterNumber":3,"parameterNumberName":"V-component_of_WINDS"},"data":[0,0,0,0,0,0,0,0,0,0,0,0,0,0,0,0,0,0,0,0,0,0,0,0,0,0,0,0,0,0,0,0,0,0,0,0,0,0,0,0,0,0,0,0,0,0,0,0,0,0,0,0,0,0,0,0,0,0,3.8765,3.8765,0,3.8747,3.8746,3.8746,3.8727,3.8727,3.8726,3.8726,3.8705,3.8704,3.8704,0,0,0,0,0,0,0,0,0,0,0,0,0,3.8785,3.8784,3.8765,3.8765,3.8765,3.8747,3.8746,3.8746,3.8727,3.8727,3.8726,3.8726,3.8705,3.8704,3.8704,0,0,0,0,0,0,0,0,0,0,0,0,0,3.8772,3.8784,3.8766,3.8753,3.8752,3.8747,3.8746,3.8746,3.8727,3.8727,3.8726,3.8726,3.8705,3.8704,3.8704,3.8708,0,0,3.8702,3.8702,0,0,0,0,0,0,0,0,3.8773,3.8771,3.8755,3.8754,3.8753,3.8739,3.8745,3.8733,3.8727,3.8736,3.8726,3.8726,3.8716,3.8715,3.8712,3.8707,3.8707,3.8702,3.8702,3.8702,3.8702,0,0,0,0,0,0,0,3.8774,3.8772,3.8758,3.8755,3.8754,3.8749,3.8746,3.8743,3.8729,3.8736,3.8734,3.8732,3.8715,3.8712,3.8711,3.8706,3.8702,3.8702,3.8702,3.8701,3.8707,3.8707,0,0,0,0,0,0,3.8777,3.8773,3.8758,3.8757,3.8762,3.8749,3.8746,3.8744,3.8729,3.8726,3.8733,3.8731,3.8714,3.8712,3.871,3.8716,3.8702,3.8701,3.8701,3.8706,3.8707,3.8707,0,0,0,0,0,0,3.8777,3.8775,3.8759,3.8765,3.8762,3.8749,3.8746,3.8743,3.874,3.8726,3.8724,3.8732,3.8713,3.8711,3.871,3.8715,3.8701,3.8701,3.8706,3.8706,3.8707,3.8727,0,0,0,0,0,0,3.8778,3.8776,3.8777,3.8765,3.8762,3.8759,3.8746,3.8743,3.874,3.8738,3.8725,3.8723,3.8713,3.8711,3.8709,3.8714,3.87,3.8705,3.8706,3.8707,3.8726,3.8728,3.873,0,0,0,0,0,3.8778,3.8783,3.8777,3.8776,3.8764,3.8759,3.8758,3.8746,3.874,3.8742,3.8733,3.8723,3.8715,3.8711,3.8709,3.8714,3.8705,3.8706,3.8707,3.8725,3.8728,3.873,0,0,0,0,0,0,3.8795,3.8781,3.8775,3.8775,3.8769,3.8756,3.8758,3.875,3.8744,3.8743,3.8728,3.8726,3.8726,3.872,3.8715,3.8718,3.8708,3.8709,3.8723,3.8725,3.8728,3.8729,3.87,0,0,0,0,0,3.8799,3.8797,3.8784,3.8786,3.8783,3.8771,3.8769,3.8761,3.8753,3.875,3.8741,3.8734,3.873,3.8727,3.8722,3.8725,3.8722,3.8727,3.873,3.8731,3.8732,3.8735,3.8737,3.871,3.871,3.871,0,0,3.8806,3.8798,3.8798,3.8789,3.8783,3.8782,3.8769,3.8767,3.8766,3.8749,3.8748,3.8742,3.8732,3.8734,3.8733,3.8728,3.8739,3.8733,3.8734,3.8734,3.8736,3.8739,3.8741,3.8711,3.8711,3.8711,0,0,3.8819,3.8813,3.8814,3.8809,3.8801,3.8793,3.8794,3.8783,3.8778,3.8777,3.8765,3.8763,3.8756,3.8751,3.8747,3.876,3.8752,3.8759,3.8771,3.8774,3.8776,3.8778,3.8784,3.8786,3.876,3.876,3.876,0,3.883,3.8827,3.8816,3.8816,3.8813,3.88,3.8801,3.8797,3.8787,3.8785,3.8779,3.8772,3.8764,3.8765,3.8768,3.8765,3.8766,3.8761,3.8777,3.8778,3.878,3.8785,3.8788,3.8761,3.8761,3.8761,3.8761,0,3.8841,3.8839,3.8841,3.8834,3.8831,3.8832,3.8821,3.882,3.8813,3.8806,3.8805,3.8797,3.8791,3.879,3.8782,3.879,3.8787,3.8779,3.8769,3.8784,3.8789,3.8791,3.8763,3.8762,3.8762,3.8762,0,0,3.8862,3.8851,3.8852,3.8849,3.884,3.8838,3.8839,3.8834,3.8834,3.8828,3.8829,3.8824,3.8817,3.8813,3.8805,3.8807,3.882,3.8799,3.8798,3.8804,3.883,3.8836,3.8839,3.8814,3.8815,3.8815,3.8831,0,3.8875,3.8876,3.8867,3.887,3.8869,3.8858,3.8858,3.8853,3.8847,3.8845,3.8838,3.8836,3.8826,3.8824,3.8826,3.8818,3.8825,3.8817,3.8815,3.8815,3.8818,3.8841,3.8848,3.8863,3.8833,3.8833,3.8833,0,3.8888,3.8885,3.8889,3.8882,3.8881,3.8882,3.8878,3.8876,3.887,3.8866,3.8863,3.8854,3.8854,3.8845,3.8846,3.884,3.8839,3.8836,3.8836,3.8836,3.8825,3.8842,3.8868,3.887,3.8836,3.8836,3.8835,0,3.8906,3.8902,3.8904,3.8902,3.8893,3.8894,3.8891,3.8884,3.8883,3.8879,3.8878,3.8874,3.8872,3.887,3.8861,3.8854,3.8863,3.8852,3.886,3.886,3.8862,3.8863,3.8889,3.8861,3.8861,3.8861,3.886,0,3.892,3.8923,3.8912,3.8913,3.8917,3.8907,3.8911,3.8906,3.8901,3.8901,3.889,3.8891,3.8879,3.8878,3.8871,3.8873,3.8872,3.8869,3.8867,3.887,3.8871,3.887,3.8869,3.8861,3.8861,3.8861,3.8861,0,3.894,3.8932,3.8934,3.8926,3.8925,3.8928,3.8921,3.8922,3.8916,3.8917,3.8917,3.8907,3.8906,3.8897,3.8893,3.8888,3.8894,3.889,3.8897,3.8896,3.8904,3.8904,3.8931,3.8934,3.8903,3.8904,3.8904,0,3.895,3.8952,3.8945,3.8946,3.8943,3.8943,3.8942,3.8932,3.8932,3.8927,3.8929,3.8927,3.8925,3.8924,3.8917,3.8915,3.8911,3.8921,3.891,3.8914,3.8912,3.8913,3.8913,3.8923,3.8923,3.8923,3.8924,0,3.8969,3.8966,3.8965,3.8964,3.8963,3.8961,3.8959,3.8959,3.8949,3.8949,3.8949,3.8948,3.8945,3.8944,3.8941,3.8937,3.8929,3.8927,3.8929,3.8932,3.8937,3.8936,3.8904,3.8926,3.8926,3.8926,3.8926,3.8926,3.8985,3.8987,3.8984,3.8984,3.8981,3.8979,3.8981,3.8976,3.8976,3.8974,3.8968,3.8969,3.8965,3.896,3.8957,3.8958,3.8953,3.8955,3.8956,3.8957,3.8959,3.8937,3.8957,3.8957,3.8957,3.8957,3.8957,0,3.9005,3.9002,3.9002,3.9,3.9001,3.8994,3.8991,3.8992,3.8993,3.899,3.899,3.899,3.899,3.8983,3.8982,3.8984,3.898,3.8984,3.8984,3.8984,3.8963,3.8962,3.8987,3.8987,3.8987,3.8987,3.8987,3.8987,3.9015,3.9019,3.9016,3.9019,3.9016,3.9018,3.9017,3.9016,3.9014,3.9016,3.9016,3.9012,3.9008,3.9007,3.9006,3.9004,3.9005,3.901,3.9007,3.8988,3.8985,3.8982,3.8981,3.901,3.901,3.9028,3.9028,3.9028]}]]